TimeCDT,TemperatureF,Dew PointF,Humidity,Sea Level PressureIn,VisibilityMPH,Wind Direction,Wind SpeedMPH,Gust SpeedMPH,PrecipitationIn,Events,Conditions,WindDirDegrees,DateUTC
12:15 AM,66.2,64.4,94,29.95,10.0,South,8.1,-,N/A,,Overcast,180,2013-10-01 05:15:00
12:35 AM,66.2,66.2,100,29.94,7.0,South,6.9,-,N/A,,Overcast,180,2013-10-01 05:35:00
12:55 AM,66.2,64.4,94,29.94,10.0,South,10.4,-,N/A,,Overcast,190,2013-10-01 05:55:00
1:15 AM,66.2,64.4,94,29.95,10.0,South,8.1,-,N/A,,Overcast,180,2013-10-01 06:15:00
1:35 AM,66.2,66.2,100,29.95,7.0,South,9.2,-,N/A,,Overcast,180,2013-10-01 06:35:00
1:55 AM,66.2,64.4,94,29.96,7.0,South,8.1,-,N/A,,Overcast,180,2013-10-01 06:55:00
2:15 AM,66.2,64.4,94,29.96,7.0,South,8.1,-,N/A,,Overcast,190,2013-10-01 07:15:00
2:35 AM,66.2,66.2,100,29.96,7.0,South,8.1,-,N/A,,Overcast,190,2013-10-01 07:35:00
2:55 AM,66.2,66.2,100,29.96,7.0,South,5.8,-,N/A,,Overcast,180,2013-10-01 07:55:00
3:15 AM,66.2,64.4,94,29.95,7.0,South,5.8,-,N/A,,Overcast,170,2013-10-01 08:15:00
3:35 AM,66.2,64.4,94,29.95,7.0,South,6.9,-,N/A,,Scattered Clouds,170,2013-10-01 08:35:00
3:55 AM,64.4,64.4,100,29.95,5.0,South,5.8,-,N/A,,Scattered Clouds,170,2013-10-01 08:55:00
4:15 AM,64.4,64.4,100,29.96,5.0,South,4.6,-,N/A,,Mostly Cloudy,170,2013-10-01 09:15:00
4:35 AM,66.2,64.4,94,29.97,5.0,South,4.6,-,N/A,,Mostly Cloudy,180,2013-10-01 09:35:00
4:55 AM,66.2,64.4,94,29.97,5.0,South,6.9,-,N/A,,Overcast,180,2013-10-01 09:55:00
5:15 AM,66.2,64.4,94,29.98,5.0,South,5.8,-,N/A,,Overcast,190,2013-10-01 10:15:00
5:35 AM,66.2,64.4,94,29.98,5.0,South,4.6,-,N/A,,Overcast,190,2013-10-01 10:35:00
5:55 AM,66.2,64.4,94,29.99,5.0,South,5.8,-,N/A,,Overcast,180,2013-10-01 10:55:00
6:15 AM,66.2,64.4,94,29.99,5.0,South,4.6,-,N/A,,Overcast,180,2013-10-01 11:15:00
6:35 AM,66.2,64.4,94,30.00,5.0,South,4.6,-,N/A,,Mostly Cloudy,190,2013-10-01 11:35:00
6:55 AM,66.2,64.4,94,30.00,5.0,South,6.9,-,N/A,,Mostly Cloudy,180,2013-10-01 11:55:00
4:55 PM,71.6,64.4,78,29.98,10.0,SSW,8.1,-,N/A,,Overcast,200,2013-10-01 21:55:00
5:15 PM,-9999,-9999,N/A,29.98,-9999.0,South,5.8,-,N/A,,Unknown,180,2013-10-01 22:15:00
5:35 PM,73.4,64.4,73,29.98,10.0,South,5.8,-,N/A,,Mostly Cloudy,190,2013-10-01 22:35:00
5:55 PM,71.6,64.4,78,29.98,10.0,South,5.8,-,N/A,,Scattered Clouds,180,2013-10-01 22:55:00
6:15 PM,71.6,64.4,78,29.98,10.0,South,4.6,-,N/A,,Scattered Clouds,170,2013-10-01 23:15:00
6:35 PM,69.8,64.4,83,29.98,7.0,South,3.5,-,N/A,,Clear,170,2013-10-01 23:35:00
6:55 PM,68.0,64.4,88,29.99,7.0,South,3.5,-,N/A,,Clear,170,2013-10-01 23:55:00
7:15 PM,68.0,64.4,88,29.99,7.0,SSE,4.6,-,N/A,,Clear,160,2013-10-02 00:15:00
7:35 PM,68.0,64.4,88,29.99,7.0,SSE,4.6,-,N/A,,Clear,160,2013-10-02 00:35:00
7:55 PM,66.2,64.4,94,29.99,5.0,SSE,4.6,-,N/A,,Clear,150,2013-10-02 00:55:00
8:15 PM,66.2,64.4,94,30.00,5.0,SSE,4.6,-,N/A,,Clear,150,2013-10-02 01:15:00
8:35 PM,66.2,64.4,94,30.00,5.0,SE,4.6,-,N/A,,Mostly Cloudy,140,2013-10-02 01:35:00
8:55 PM,66.2,64.4,94,30.00,5.0,SSE,5.8,-,N/A,,Mostly Cloudy,150,2013-10-02 01:55:00
9:15 PM,66.2,64.4,94,30.00,5.0,SSE,4.6,-,N/A,,Scattered Clouds,150,2013-10-02 02:15:00
9:35 PM,66.2,64.4,94,30.01,5.0,SSE,5.8,-,N/A,,Clear,160,2013-10-02 02:35:00
9:55 PM,66.2,64.4,94,30.01,5.0,SSE,6.9,-,N/A,,Scattered Clouds,160,2013-10-02 02:55:00
10:15 PM,66.2,64.4,94,30.01,5.0,South,5.8,-,N/A,,Scattered Clouds,180,2013-10-02 03:15:00
10:35 PM,66.2,64.4,94,30.01,5.0,South,5.8,-,N/A,,Scattered Clouds,180,2013-10-02 03:35:00
10:55 PM,66.2,64.4,94,30.01,5.0,South,6.9,-,N/A,,Clear,180,2013-10-02 03:55:00
11:15 PM,66.2,64.4,94,30.01,5.0,South,5.8,-,N/A,,Clear,190,2013-10-02 04:15:00
11:35 PM,64.4,64.4,100,30.02,4.0,South,5.8,-,N/A,,Clear,190,2013-10-02 04:35:00
11:55 PM,64.4,64.4,100,30.02,4.0,South,4.6,-,N/A,,Clear,190,2013-10-02 04:55:00